DW0156 Weather Reports


Display with metric or nautical units.
time (UTC)temp
F
wind
direction
speed
MPH
gust
MPH
rain 1hr
in
rain 24hr
in
rain mn
in
humidity
%
barometer
mb
20260831072352 68 263 1.0 4.0 0.00 0.00 0.00 58 1025.0
20260831071850 68 263 1.0 0.0 0.00 0.00 0.00 57 1025.0
20260831071358 68 263 2.0 4.0 0.00 0.00 0.00 58 1025.1
20260831070904 68 263 1.0 4.0 0.00 0.00 0.00 57 1025.1
20260831070354 67 263 1.0 4.0 0.00 0.00 0.00 58 1025.1
20260831065241 67 263 2.0 6.0 0.00 0.00 0.00 59 1025.3
20260831064735 67 263 2.0 6.0 0.00 0.00 0.00 59 1025.3
20260831064234 67 263 2.0 7.0 0.00 0.00 0.00 58 1025.4
20260831063112 67 263 2.0 7.0 0.00 0.00 0.00 59 1025.4
20260831062621 67 263 3.0 8.0 0.00 0.00 0.00 59 1025.5
20260831062128 68 263 4.0 8.0 0.00 0.00 0.00 58 1025.5
20260831061628 68 263 3.0 8.0 0.00 0.00 0.00 58 1025.5
20260831061108 68 263 3.0 8.0 0.00 0.00 0.00 57 1025.7
20260831060555 68 263 3.0 8.0 0.00 0.00 0.00 57 1025.7
20260831060044 68 263 3.0 8.0 0.00 0.00 0.00 56 1025.7
20260831055553 69 263 3.0 8.0 0.00 0.00 0.00 56 1025.6
20260831055048 69 263 3.0 6.0 0.00 0.00 0.00 55 1025.6
20260831053859 70 263 4.0 10.0 0.00 0.00 0.00 54 1025.6
20260831053400 70 263 3.0 10.0 0.00 0.00 0.00 55 1025.6
20260831052842 70 263 4.0 9.0 0.00 0.00 0.00 54 1025.8
20260831052351 70 263 3.0 9.0 0.00 0.00 0.00 53 1025.8
20260831051831 70 263 3.0 9.0 0.00 0.00 0.00 55 1025.8
20260831051340 70 263 4.0 9.0 0.00 0.00 0.00 53 1025.9
20260831050154 71 263 2.0 8.0 0.00 0.00 0.00 52 1025.9
20260831045651 71 263 2.0 8.0 0.00 0.00 0.00 50 1026.1
20260831044509 69 263 3.0 8.0 0.00 0.00 0.00 54 1026.1
20260831044011 69 263 3.0 10.0 0.00 0.00 0.00 53 1026.4
20260831043505 69 263 3.0 10.0 0.00 0.00 0.00 54 1026.4
20260831042959 69 263 5.0 10.0 0.00 0.00 0.00 54 1026.4
20260831041844 70 263 3.0 9.0 0.00 0.00 0.00 52 1026.8
20260831041329 70 263 3.0 8.0 0.00 0.00 0.00 52 1027.0
20260831040818 70 263 3.0 8.0 0.00 0.00 0.00 53 1027.0
20260831040315 69 263 3.0 9.0 0.00 0.00 0.00 53 1027.0
20260831035757 69 263 3.0 9.0 0.00 0.00 0.00 52 1027.4
20260831035250 69 263 3.0 9.0 0.00 0.00 0.00 52 1027.4
20260831034739 70 263 3.0 9.0 0.00 0.00 0.00 51 1027.4
20260831034235 70 263 3.0 7.0 0.00 0.00 0.00 50 1027.6
20260831033105 70 263 1.0 5.0 0.00 0.00 0.00 49 1027.6
20260831032555 69 263 2.0 6.0 0.00 0.00 0.00 50 1028.0
20260831032046 69 263 3.0 6.0 0.00 0.00 0.00 51 1028.0
20260831031536 69 263 2.0 6.0 0.00 0.00 0.00 52 1028.0
20260831031033 69 263 2.0 6.0 0.00 0.00 0.00 51 1028.4
20260831030520 69 263 3.0 8.0 0.00 0.00 0.00 52 1028.4
20260831030005 69 263 2.0 8.0 0.00 0.00 0.00 52 1028.4
20260831025503 69 263 3.0 8.0 0.00 0.00 0.00 51 1028.6
20260831024950 69 263 2.0 8.0 0.00 0.00 0.00 50 1028.6
20260831024447 70 263 1.0 5.0 0.00 0.00 0.00 50 1028.6
20260831023939 70 263 1.0 5.0 0.00 0.00 0.00 49 1029.0
20260831023444 70 263 1.0 5.0 0.00 0.00 0.00 51 1029.0
20260831022935 69 263 1.0 5.0 0.00 0.00 0.00 51 1029.0
20260831022416 69 263 1.0 5.0 0.00 0.00 0.00 53 1029.2
20260831021240 67 263 1.0 6.0 0.00 0.00 0.00 57 1029.5
20260831015522 66 263 1.0 4.0 0.00 0.00 0.00 59 1029.6
20260831015016 66 263 2.0 6.0 0.00 0.00 0.00 59 1029.6
20260831014525 66 263 1.0 6.0 0.00 0.00 0.00 59 1029.6
20260831014031 66 263 2.0 6.0 0.00 0.00 0.00 60 1030.0
20260831013536 65 263 2.0 6.0 0.00 0.00 0.00 60 1030.0
20260831013023 65 263 1.0 5.0 0.00 0.00 0.00 60 1030.0
20260831012531 65 263 1.0 5.0 0.00 0.00 0.00 60 1030.1
20260831005521 63 263 1.0 5.0 0.00 0.00 0.00 65 1030.1
20260831004341 63 263 0.0 3.0 0.00 0.00 0.00 64 1030.1
20260831003845 63 263 0.0 3.0 0.00 0.00 0.00 66 1030.1
20260831003328 62 263 0.0 0.0 0.00 0.00 0.00 66 1030.1
20260831002814 62 263 0.0 2.0 0.00 0.00 0.00 67 1030.1
20260831002258 61 263 0.0 2.0 0.00 0.00 0.00 67 1030.1
20260831001743 61 263 0.0 1.0 0.00 0.00 0.00 68 1030.1
20260831001247 60 263 0.0 0.0 0.00 0.00 0.00 69 1030.1
20260831000752 60 263 0.0 3.0 0.00 0.00 0.00 69 1030.1
20260830235648 60 263 1.0 3.0 0.00 0.00 0.00 70 1030.2
20260830235140 60 263 0.0 2.0 0.00 0.00 0.00 70 1030.2
20260830234630 59 263 0.0 2.0 0.00 0.00 0.00 72 1030.2
20260830234126 58 263 0.0 0.0 0.00 0.00 0.00 73 1030.3
20260830233610 58 263 0.0 2.0 0.00 0.00 0.00 73 1030.3
20260830233120 58 263 0.0 2.0 0.00 0.00 0.00 74 1030.3
20260830232613 57 263 0.0 2.0 0.00 0.00 0.00 74 1030.3
20260830232121 57 263 0.0 2.0 0.00 0.00 0.00 75 1030.3
20260830230941 57 263 0.0 1.0 0.00 0.00 0.00 76 1030.3
20260830230422 56 263 0.0 0.0 0.00 0.00 0.00 77 1030.3
20260830225919 56 263 0.0 0.0 0.00 0.00 0.00 78 1030.3
20260830225420 56 263 0.0 1.0 0.00 0.00 0.00 80 1030.3
20260830224912 55 263 0.0 0.0 0.00 0.00 0.00 81 1030.3
20260830224357 54 263 0.0 0.0 0.00 0.00 0.00 82 1030.3
20260830223840 53 263 0.0 0.0 0.00 0.00 0.00 84 1030.3
20260830223339 52 263 0.0 0.0 0.00 0.00 0.00 85 1030.3
20260830222848 51 263 0.0 2.0 0.00 0.00 0.00 86 1030.4
20260830221715 49 263 0.0 0.0 0.00 0.00 0.00 87 1030.4
20260830221215 48 263 0.0 0.0 0.00 0.00 0.00 87 1030.3
20260830220057 47 263 0.0 0.0 0.00 0.00 0.00 87 1030.3
20260830215555 47 263 0.0 0.0 0.00 0.00 0.00 87 1030.2
20260830215055 46 263 0.0 1.0 0.00 0.00 0.00 87 1030.2
20260830214545 46 263 0.0 2.0 0.00 0.00 0.00 87 1030.2
20260830214028 45 263 0.0 0.0 0.00 0.00 0.00 87 1030.2
20260830213509 45 263 1.0 2.0 0.00 0.00 0.00 87 1030.2
20260830212956 45 263 0.0 2.0 0.00 0.00 0.00 87 1030.2
20260830212449 44 263 0.0 0.0 0.00 0.00 0.00 87 1030.2
20260830211954 44 263 0.0 1.0 0.00 0.00 0.00 86 1030.2
20260830211457 44 263 0.0 0.0 0.00 0.00 0.00 86 1030.2
20260830210338 44 263 0.0 0.0 0.00 0.00 0.00 86 1030.2
20260830205820 44 263 0.0 0.0 0.00 0.00 0.00 86 1030.2
20260830205315 44 263 0.0 0.0 0.00 0.00 0.00 85 1030.2
20260830204803 44 263 0.0 0.0 0.00 0.00 0.00 85 1030.2
20260830204252 44 263 0.0 0.0 0.00 0.00 0.00 85 1030.1
20260830203758 44 263 0.0 0.0 0.00 0.00 0.00 85 1030.1
20260830203259 45 263 0.0 0.0 0.00 0.00 0.00 85 1030.1
20260830202807 45 263 0.0 0.0 0.00 0.00 0.00 85 1029.9
20260830202306 45 263 0.0 0.0 0.00 0.00 0.00 85 1029.9
20260830201805 45 263 0.0 0.0 0.00 0.00 0.00 85 1029.9
20260830200656 45 263 0.0 0.0 0.00 0.00 0.00 84 1029.7
20260830200152 45 263 0.0 1.0 0.00 0.00 0.00 85 1029.7
20260830195657 46 263 0.0 0.0 0.00 0.00 0.00 85 1029.7
20260830195142 46 263 0.0 0.0 0.00 0.00 0.00 85 1029.7
20260830194638 46 263 0.0 0.0 0.00 0.00 0.00 85 1029.7
20260830193509 45 263 0.0 0.0 0.00 0.00 0.00 85 1029.7
20260830192324 45 263 0.0 0.0 0.00 0.00 0.00 85 1029.6
20260830191827 45 263 0.0 0.0 0.00 0.00 0.00 85 1029.6
20260830191326 46 263 0.0 0.0 0.00 0.00 0.00 85 1029.6
20260830190809 46 263 0.0 0.0 0.00 0.00 0.00 85 1029.6
20260830190249 46 263 0.0 0.0 0.00 0.00 0.00 85 1029.6
20260830185734 46 263 0.0 0.0 0.00 0.00 0.00 85 1029.8
20260830184610 46 263 0.0 0.0 0.00 0.00 0.00 85 1029.8
20260830184101 46 263 0.0 0.0 0.00 0.00 0.00 85 1029.9
20260830182934 46 263 0.0 0.0 0.00 0.00 0.00 85 1029.9
20260830182414 46 263 0.0 0.0 0.00 0.00 0.00 85 1030.1
20260830181303 46 263 0.0 0.0 0.00 0.00 0.00 85 1030.1
20260830180755 46 263 0.0 0.0 0.00 0.00 0.00 85 1030.1
20260830174312 46 263 0.0 2.0 0.00 0.00 0.00 86 1030.4
20260830171906 46 263 1.0 2.0 0.00 0.00 0.00 86 1030.6
20260830171349 46 263 1.0 2.0 0.00 0.00 0.00 86 1030.7
20260830170835 46 263 0.0 1.0 0.00 0.00 0.00 86 1030.7
20260830170317 46 263 0.0 0.0 0.00 0.00 0.00 86 1030.7
20260830165757 46 263 1.0 2.0 0.00 0.00 0.00 86 1030.8
20260830165300 46 263 0.0 2.0 0.00 0.00 0.00 86 1030.8
20260830164154 46 263 0.0 2.0 0.00 0.00 0.00 86 1031.1
20260830163657 46 263 0.0 2.0 0.00 0.00 0.00 86 1031.1
20260830162547 46 263 0.0 0.0 0.00 0.00 0.00 85 1031.2
20260830162034 46 263 0.0 2.0 0.00 0.00 0.00 85 1031.2
20260830160900 46 263 0.0 0.0 0.00 0.00 0.00 85 1031.3
20260830155728 46 263 0.0 0.0 0.00 0.00 0.00 85 1031.5
20260830155217 46 263 0.0 0.0 0.00 0.00 0.00 85 1031.5
20260830154719 46 263 0.0 0.0 0.00 0.00 0.00 85 1031.5
20260830154202 46 263 0.0 0.0 0.00 0.00 0.00 84 1031.6
20260830153653 47 263 0.0 0.0 0.00 0.00 0.00 84 1031.6
20260830153157 47 263 0.0 0.0 0.00 0.00 0.00 84 1031.6
20260830152639 47 263 0.0 0.0 0.00 0.00 0.00 84 1031.7
20260830151521 47 263 0.0 0.0 0.00 0.00 0.00 84 1031.7
20260830150356 47 263 0.0 0.0 0.00 0.00 0.00 84 1031.6
20260830145839 47 263 0.0 0.0 0.00 0.00 0.00 84 1031.6
20260830145342 47 263 0.0 0.0 0.00 0.00 0.00 84 1031.6
20260830144218 48 263 0.0 0.0 0.00 0.00 0.00 84 1031.7
20260830143717 48 263 0.0 0.0 0.00 0.00 0.00 84 1031.7
20260830143219 48 263 0.0 0.0 0.00 0.00 0.00 84 1031.7
20260830142708 48 263 0.0 0.0 0.00 0.00 0.00 84 1031.7
20260830142201 48 263 0.0 0.0 0.00 0.00 0.00 84 1031.7
20260830141709 48 263 0.0 0.0 0.00 0.00 0.00 84 1031.7
20260830141210 48 263 0.0 0.0 0.00 0.00 0.00 84 1031.9
20260830140658 48 263 0.0 0.0 0.00 0.00 0.00 83 1031.9
20260830135525 49 263 0.0 0.0 0.00 0.00 0.00 84 1032.2
20260830135024 49 263 0.0 0.0 0.00 0.00 0.00 84 1032.2
20260830134512 49 263 0.0 1.0 0.00 0.00 0.00 83 1032.2
20260830134016 49 263 0.0 0.0 0.00 0.00 0.00 83 1032.2
20260830133522 49 263 0.0 0.0 0.00 0.00 0.00 83 1032.2
20260830132416 50 263 0.0 0.0 0.00 0.00 0.00 83 1032.2
20260830131904 50 263 0.0 0.0 0.00 0.00 0.00 83 1032.2
20260830131400 50 263 0.0 0.0 0.00 0.00 0.00 82 1032.3
20260830130855 50 263 0.0 0.0 0.00 0.00 0.00 82 1032.3
20260830130339 51 263 0.0 0.0 0.00 0.00 0.00 82 1032.3
20260830125831 51 263 0.0 0.0 0.00 0.00 0.00 81 1032.2
20260830124023 52 263 0.0 0.0 0.00 0.00 0.00 81 1032.1
20260830123510 52 263 0.0 0.0 0.00 0.00 0.00 80 1032.1
20260830122950 52 263 0.0 0.0 0.00 0.00 0.00 79 1032.1
20260830122446 53 263 0.0 0.0 0.00 0.00 0.00 79 1032.2
20260830121946 53 263 0.0 0.0 0.00 0.00 0.00 78 1032.2
20260830121453 53 263 0.0 0.0 0.00 0.00 0.00 78 1032.2
20260830120948 54 263 0.0 0.0 0.00 0.00 0.00 78 1032.0
20260830115816 54 263 0.0 0.0 0.00 0.00 0.00 78 1032.0
20260830115318 54 263 0.0 0.0 0.00 0.00 0.00 76 1032.0
20260830114801 55 263 0.0 0.0 0.00 0.00 0.00 75 1032.0
20260830114303 56 263 0.0 0.0 0.00 0.00 0.00 75 1031.7
20260830113148 56 263 0.0 0.0 0.00 0.00 0.00 74 1031.7
20260830112629 56 263 0.0 0.0 0.00 0.00 0.00 74 1031.6
20260830112137 57 263 0.0 0.0 0.00 0.00 0.00 74 1031.6
20260830111032 57 263 2.0 6.0 0.00 0.00 0.00 74 1031.6
20260830110518 57 263 2.0 6.0 0.00 0.00 0.00 74 1031.6
20260830110004 57 263 2.0 6.0 0.00 0.00 0.00 75 1031.6
20260830105454 57 263 1.0 4.0 0.00 0.00 0.00 75 1031.5
20260830104346 57 263 0.0 3.0 0.00 0.00 0.00 74 1031.5
20260830103837 57 263 0.0 1.0 0.00 0.00 0.00 73 1031.5
20260830103327 57 263 0.0 0.0 0.00 0.00 0.00 72 1031.5
20260830102828 57 263 0.0 0.0 0.00 0.00 0.00 72 1031.3
20260830102331 58 263 0.0 0.0 0.00 0.00 0.00 71 1031.3
20260830101838 58 263 0.0 0.0 0.00 0.00 0.00 71 1031.3
20260830101346 58 263 0.0 0.0 0.00 0.00 0.00 71 1031.2
20260830100839 58 263 0.0 0.0 0.00 0.00 0.00 71 1031.2
20260830100349 59 263 0.0 0.0 0.00 0.00 0.00 71 1031.2
20260830093949 59 263 1.0 5.0 0.00 0.00 0.00 71 1030.9
20260830093449 59 263 2.0 5.0 0.00 0.00 0.00 71 1030.9
20260830092943 59 263 1.0 5.0 0.00 0.00 0.00 72 1030.9
20260830091814 58 263 0.0 3.0 0.00 0.00 0.00 71 1031.0
20260830091307 58 263 0.0 2.0 0.00 0.00 0.00 71 1031.0
20260830090752 58 263 0.0 2.0 0.00 0.00 0.00 70 1031.0
20260830090246 59 263 0.0 2.0 0.00 0.00 0.00 69 1031.0
20260830085105 59 263 0.0 0.0 0.00 0.00 0.00 66 1031.1
20260830084605 60 263 0.0 0.0 0.00 0.00 0.00 66 1031.1
20260830084055 60 263 0.0 0.0 0.00 0.00 0.00 66 1031.1
20260830083541 60 263 0.0 0.0 0.00 0.00 0.00 65 1031.1
20260830083036 61 263 0.0 0.0 0.00 0.00 0.00 65 1031.1
20260830082528 61 263 0.0 0.0 0.00 0.00 0.00 64 1031.1
20260830082025 61 263 0.0 0.0 0.00 0.00 0.00 64 1031.1
20260830081508 62 263 0.0 2.0 0.00 0.00 0.00 63 1031.1
20260830081015 62 263 0.0 1.0 0.00 0.00 0.00 63 1030.9
20260830080505 62 263 1.0 4.0 0.00 0.00 0.00 62 1030.9
20260830080008 62 263 2.0 4.0 0.00 0.00 0.00 62 1030.9
20260830075507 63 263 2.0 4.0 0.00 0.00 0.00 61 1031.0
20260830075011 63 263 2.0 4.0 0.00 0.00 0.00 61 1031.0
20260830074502 63 263 2.0 4.0 0.00 0.00 0.00 61 1031.0
20260830074008 63 263 2.0 5.0 0.00 0.00 0.00 62 1030.9
20260830073503 63 263 2.0 5.0 0.00 0.00 0.00 61 1030.9
20260830073006 63 263 3.0 6.0 0.00 0.00 0.00 61 1030.9